Weather History for Falfurrias, TX

Change the Weather History Date:

Thursday, February 21, 2013

  Actual Average (KNQI) Record (KNQI)
Temperature  
Mean Temperature 78 °F -  
Max Temperature 86 °F 70 °F 75 °F (2014)
Min Temperature 69 °F 51 °F 46 °F (2014)
Cooling Degree Days 12    
Growing Degree Days 28 (Base 50)    
Moisture  
Dew Point 62 °F    
Average Humidity 62    
Maximum Humidity 88    
Minimum Humidity 33    
Precipitation  
Precipitation 0.00 in - - ()
Sea Level Pressure  
Sea Level Pressure 29.68 in    
Wind  
Wind Speed 14 mph (East)    
Max Wind Speed 23 mph    
Max Gust Speed 32 mph    
Visibility 9 miles    
Events      
Averages and records for this station are not official NWS values.
T = Trace of Precipitation, MM = Missing Value Source: NWS Daily Summary

Daily Weather History Graph

Daily Weather History Graph

Search for Another Location

Airport:

Trip Planner

Search our weather history database for the weather conditions in past years. The results will help you decide how hot, cold, wet, or windy it might be!

Date:

Astronomy

Feb. 21, 2013 Rise Set
Actual Time 7:03 AM CST 6:28 PM CST
Civil Twilight 6:40 AM CST 6:52 PM CST
Nautical Twilight 6:13 AM CST 7:19 PM CST
Astronomical Twilight 5:46 AM CST 7:46 PM CST
Moon 2:57 PM CST 3:55 AM CST
Length of Visible Light 12h 11m
Length of Day
11h 24m
Waxing Gibbous, 84% of the Moon is Illuminated
Feb 21
Waxing Gibbous
Feb 25
Full
Mar 4
Last Quarter
Mar 11
New
Mar 19
First Quarter

Hourly Weather History & Observations

Time (CST) Temp. Heat Index Dew Point Humidity Pressure Visibility Wind Dir Wind Speed Gust Speed Precip Events Conditions
12:15 AM 77.2 °F - 68.9 °F 76% 29.65 in 10.0 mi SSE 20.7 mph 27.6 mph N/A   Overcast
12:35 AM 77.2 °F - 68.5 °F 75% 29.65 in 10.0 mi SSE 21.9 mph 27.6 mph N/A   Overcast
12:55 AM 77.4 °F - 68.7 °F 75% 29.65 in 7.0 mi SSE 18.4 mph 26.5 mph N/A   Overcast
1:15 AM 77.2 °F - 68.9 °F 76% 29.65 in 10.0 mi SSE 18.4 mph - N/A   Overcast
1:35 AM 77.2 °F - 68.9 °F 76% 29.63 in 10.0 mi SSE 18.4 mph 25.3 mph N/A   Overcast
1:55 AM 77.0 °F - 68.7 °F 75% 29.61 in 10.0 mi SSE 20.7 mph 26.5 mph N/A   Overcast
2:15 AM 77.0 °F - 68.9 °F 76% 29.62 in 10.0 mi SSE 19.6 mph 28.8 mph N/A   Overcast
2:35 AM 76.6 °F - 68.9 °F 77% 29.60 in 10.0 mi SSE 23.0 mph 29.9 mph N/A   Overcast
2:55 AM 76.5 °F - 68.9 °F 77% 29.60 in 10.0 mi SSE 18.4 mph 32.2 mph N/A   Overcast
3:15 AM 76.6 °F - 68.9 °F 77% 29.61 in 10.0 mi SSE 17.3 mph 29.9 mph N/A   Overcast
3:35 AM 76.5 °F - 69.1 °F 78% 29.60 in 10.0 mi SSE 17.3 mph 21.9 mph N/A   Overcast
3:55 AM 76.3 °F - 69.3 °F 79% 29.60 in 10.0 mi South 16.1 mph 21.9 mph N/A   Overcast
4:15 AM 76.3 °F - 69.3 °F 79% 29.60 in 10.0 mi South 10.4 mph - N/A   Overcast
4:35 AM 76.1 °F - 69.3 °F 79% 29.59 in 10.0 mi SSE 16.1 mph 19.6 mph N/A   Overcast
4:55 AM 75.9 °F - 69.3 °F 80% 29.59 in 10.0 mi SSE 13.8 mph 19.6 mph N/A   Overcast
5:15 AM 75.6 °F - 69.3 °F 81% 29.59 in 10.0 mi SSE 12.7 mph - N/A   Overcast
5:35 AM 75.0 °F - 69.3 °F 82% 29.60 in 10.0 mi SSE 10.4 mph - N/A   Overcast
5:55 AM 74.3 °F - 69.1 °F 84% 29.61 in 7.0 mi South 9.2 mph - N/A   Scattered Clouds
6:15 AM 73.6 °F - 69.3 °F 86% 29.61 in 7.0 mi SSE 9.2 mph - N/A   Clear
6:35 AM 72.9 °F - 68.9 °F 87% 29.60 in 7.0 mi SSE 10.4 mph - N/A   Clear
6:55 AM 72.7 °F - 68.9 °F 88% 29.61 in 7.0 mi South 10.4 mph - N/A   Clear
7:15 AM 72.5 °F - 68.9 °F 88% 29.61 in 7.0 mi South 12.7 mph - N/A   Clear
7:35 AM 72.5 °F - 68.9 °F 88% 29.62 in 5.0 mi South 11.5 mph - N/A   Clear
7:55 AM 72.1 °F - 68.5 °F 88% 29.63 in 5.0 mi SSE 12.7 mph - N/A   Clear
8:15 AM 72.5 °F - 68.9 °F 88% 29.64 in 5.0 mi SSE 12.7 mph 16.1 mph N/A   Clear
8:35 AM 73.4 °F - 69.1 °F 86% 29.65 in 7.0 mi South 12.7 mph 20.7 mph N/A   Clear
9:15 AM 75.2 °F - 69.1 °F 81% 29.66 in 7.0 mi South 17.3 mph - N/A   Clear
9:35 AM 76.1 °F - 68.9 °F 78% 29.67 in 10.0 mi South 15.0 mph 19.6 mph N/A   Clear
9:55 AM 77.0 °F - 68.9 °F 76% 29.67 in 7.0 mi South 15.0 mph 23.0 mph N/A   Clear
10:15 AM 78.4 °F - 68.5 °F 72% 29.67 in 10.0 mi South 16.1 mph 20.7 mph N/A   Clear
10:35 AM 80.6 °F 83.4 °F 68.2 °F 66% 29.68 in 10.0 mi South 13.8 mph 20.7 mph N/A   Clear
10:55 AM 81.5 °F 84.1 °F 67.5 °F 62% 29.69 in 10.0 mi SSW 12.7 mph - N/A   Clear
11:15 AM 82.2 °F 84.7 °F 67.1 °F 60% 29.71 in 10.0 mi West 10.4 mph - N/A   Clear
11:35 AM 82.2 °F 84.7 °F 67.3 °F 60% 29.71 in 10.0 mi West 6.9 mph 10.4 mph N/A   Clear
11:55 AM 82.8 °F 85.3 °F 67.3 °F 59% 29.71 in 10.0 mi West 9.2 mph - N/A   Clear
12:15 PM 82.0 °F 84.5 °F 66.9 °F 60% 29.71 in 10.0 mi NW 9.2 mph - N/A   Scattered Clouds
12:35 PM 82.8 °F 85.1 °F 66.7 °F 58% 29.70 in 10.0 mi NW 6.9 mph - N/A   Scattered Clouds
12:55 PM 82.4 °F 84.8 °F 66.7 °F 59% 29.70 in 10.0 mi NNW 9.2 mph - N/A   Scattered Clouds
1:35 PM 82.9 °F 84.8 °F 65.3 °F 55% 29.70 in 10.0 mi North 8.1 mph 16.1 mph N/A   Scattered Clouds
1:55 PM 82.9 °F 84.4 °F 64.4 °F 53% 29.69 in 10.0 mi NNW 9.2 mph - N/A   Scattered Clouds
2:15 PM 83.3 °F 84.4 °F 63.5 °F 51% 29.68 in 10.0 mi North 10.4 mph 18.4 mph N/A   Clear
2:35 PM 83.7 °F 84.7 °F 63.1 °F 50% 29.67 in 10.0 mi NNW 11.5 mph 17.3 mph N/A   Clear
3:15 PM 85.3 °F 86.1 °F 62.8 °F 47% 29.67 in 10.0 mi NNW 11.5 mph 17.3 mph N/A   Clear
3:55 PM 86.2 °F 86.8 °F 62.6 °F 45% 29.66 in 10.0 mi North 13.8 mph 19.6 mph N/A   Clear
4:15 PM 86.0 °F 86.3 °F 62.1 °F 44% 29.67 in 10.0 mi North 13.8 mph 20.7 mph N/A   Clear
4:35 PM 85.1 °F 84.8 °F 59.9 °F 42% 29.68 in 10.0 mi North 15.0 mph 20.7 mph N/A   Clear
4:55 PM 83.7 °F 83.3 °F 58.6 °F 42% 29.68 in 10.0 mi North 13.8 mph 18.4 mph N/A   Clear
5:15 PM 82.4 °F 81.8 °F 55.8 °F 40% 29.70 in 10.0 mi North 13.8 mph 20.7 mph N/A   Clear
5:35 PM 82.0 °F 81.4 °F 54.9 °F 39% 29.71 in 10.0 mi North 13.8 mph 19.6 mph N/A   Clear
5:55 PM 81.0 °F - 52.0 °F 36% 29.71 in 10.0 mi North 15.0 mph 21.9 mph N/A   Clear
6:15 PM 79.7 °F - 50.0 °F 35% 29.72 in 10.0 mi North 11.5 mph 18.4 mph N/A   Clear
6:35 PM 78.8 °F - 47.3 °F 33% 29.73 in 10.0 mi North 8.1 mph 17.3 mph N/A   Clear
6:55 PM 77.9 °F - 47.7 °F 34% 29.74 in 10.0 mi North 11.5 mph - N/A   Clear
7:15 PM 77.0 °F - 47.5 °F 35% 29.75 in 10.0 mi North 8.1 mph - N/A   Clear
7:35 PM 76.1 °F - 47.8 °F 37% 29.75 in 10.0 mi NNE 8.1 mph - N/A   Clear
7:55 PM 75.7 °F - 47.7 °F 37% 29.76 in 10.0 mi North 6.9 mph - N/A   Clear
8:15 PM 75.2 °F - 47.7 °F 38% 29.77 in 10.0 mi NNE 6.9 mph - N/A   Clear
8:35 PM 74.3 °F - 47.7 °F 39% 29.79 in 10.0 mi ENE 4.6 mph - N/A   Clear
8:55 PM 72.7 °F - 48.2 °F 42% 29.79 in 10.0 mi NE 4.6 mph - N/A   Scattered Clouds
9:15 PM 72.7 °F - 48.0 °F 42% 29.80 in 10.0 mi NE 5.8 mph - N/A   Clear
9:35 PM 72.0 °F - 48.2 °F 43% 29.79 in 10.0 mi NNE 5.8 mph - N/A   Clear
9:55 PM 72.0 °F - 48.7 °F 44% 29.80 in 10.0 mi NE 5.8 mph - N/A   Clear
10:15 PM 72.0 °F - 50.0 °F 46% 29.80 in 10.0 mi ENE 5.8 mph - N/A   Clear
10:35 PM 71.8 °F - 50.0 °F 46% 29.81 in 10.0 mi NNE 5.8 mph - N/A   Clear
10:55 PM 71.4 °F - 50.4 °F 47% 29.81 in 10.0 mi ENE 4.6 mph - N/A   Clear
11:15 PM 70.3 °F - 50.5 °F 49% 29.81 in 10.0 mi NNE 3.5 mph - N/A   Clear
11:35 PM 69.8 °F - 50.9 °F 51% 29.81 in 10.0 mi NNE 3.5 mph - N/A   Clear
11:55 PM 69.6 °F - 51.1 °F 52% 29.81 in 10.0 mi NNE 3.5 mph - N/A   Clear